Regional Weather Roundup
Issued by NWS Bismarck, ND

Home | Current Version | Previous Version | Text Only | Print | Product List | Glossary On
Versions: 1 2 3 4 5 6 7 8 9 10 11 12 13 14 15 16 17 18 19 20 21 22 23 24 25 26 27 28 29 30 31 32 33 34 35 36 37 38 39 40 41 42 43 44 45 46 47 48 49 50
000
ASUS43 KBIS 040610
RWRBIS

NWR BROADCAST TEXT
NATIONAL WEATHER SERVICE BISMARCK ND
100 AM CDT FRI SEP 04 2015

NOTE: "FAIR" INDICATES FEW OR NO CLOUDS BELOW 12,000 FEET WITH NO
SIGNIFICANT WEATHER AND/OR OBSTRUCTIONS TO VISIBILITY.


CITY           SKY/WX    TMP DP  RH WIND       PRES   REMARKS
WILLISTON      CLOUDY    69  50  50 N17       29.80R
MINOT          PTCLDY    68  62  81 NW9       29.71F
MINOT AFB      PTCLDY    70  65  84 NW10      29.70F
BISMARCK       PTCLDY    79  69  71 S14       29.70R
DICKINSON      PTCLDY    69  64  84 NE9       29.71F
GARRISON         N/A     72  68  87 CALM      29.72R
HETTINGER ARPT CLOUDY    72  53  51 E10       29.73R
JAMESTOWN      PTCLDY    75  72  90 SE7       29.77S
CROSBY         CLOUDY    63  45  51 NW16      29.84R
HARVEY         FAIR      75  68  78 S7        29.73S
HAZEN          FAIR      64  63  94 E3        29.72R
LINTON         FAIR      73  73 100 SE15G21   29.72S
OAKES            N/A     73  73 100 SE9       29.77S
RUGBY          FAIR      79  64  61 SE14      29.70R
STANLEY        FAIR      68  61  77 NE10G17   29.76F
$$

CITY           SKY/WX    TMP DP  RH WIND       PRES   REMARKS
GRAND FORKS    CLOUDY    77  72  84 S15       29.76R
GRAND FORKS AF CLOUDY    78  74  88 S12       29.77R
DEVILS LAKE    CLOUDY    77  66  69 SE6       29.73S
FARGO          MOCLDY    78  72  81 SE13      29.78F
CAVALIER       FAIR      79  73  83 S12G18    29.74S
GRAFTON        FAIR      77  75  94 S10       29.77S
GWINNER          N/A     75  75 100 SE10      29.79S
LANGDON        FAIR      79  73  83 S22       29.75S
ROLLA          MOCLDY    77  57  50 SW8       29.74S
WALHALLA       FAIR      79  79 100 MISG      29.72S
$$

CITY           SKY/WX    TMP DP  RH WIND       PRES   REMARKS
ABERDEEN       PTCLDY    74  70  87 SE7       29.74F
MOBRIDGE       CLOUDY    74  72  93 E7        29.70S
BUFFALO          N/A     72  51  47 SE8       29.65S
RAPID CITY     CLOUDY    71  53  52 SE9       29.78S
GLASGOW        MOCLDY    64  36  35 NE24G36   29.83F
SIDNEY         CLOUDY    70  45  40 N22G30      N/A
WOLF POINT     CLOUDY    66  39  37 N25G31    29.81F
GLENDIVE       CLOUDY    66  46  48 N21       29.79F
MILES CITY     LGT RAIN  64  55  72 NE23      29.74F
BAKER          MOCLDY    69  52  54 N15       29.76R
$$

CITY           SKY/WX    TMP DP  RH WIND       PRES   REMARKS
BILLINGS       PTCLDY    63  41  44 N12       29.83S
GREAT FALLS    LGT RAIN  49  48  97 E7        30.00S
REGINA         MOCLDY    54  45  71 N16       29.92S
ESTEVAN        CLOUDY    66  48  52 N10       29.80R
$$



USA.gov is the U.S. government's official web portal to all federal, state and local government web resources and services.